Location: Edemissen
(51.7689°N, 9.8634°E)
Time: 16:24:57
(UTC+00:00)

IDEFIX/ARIANE 42P - Visible Passes

Search period start: 08 September 2024 00:00
Search period end: 18 September 2024 00:00
Orbit: 782 x 799 km, 98.5° (Epoch: 07 September)

Date Brightness Start Highest point End Pass type
(mag) Time Alt. Az. Time Alt. Az. Time Alt. Az.
08 Sep 4.2 00:08:43 10° NE 00:12:43 25° E 00:12:43 25° E visible
08 Sep 2.7 01:47:46 10° N 01:52:55 58° WNW 01:53:26 55° W visible
08 Sep 4.6 03:29:10 10° NNW 03:31:23 13° NW 03:33:38 10° WNW visible
08 Sep 4.8 23:40:21 10° NE 23:42:56 15° E 23:42:56 15° E visible
09 Sep 2.4 01:18:22 10° NNE 01:23:38 87° ESE 01:23:40 86° ESE visible
09 Sep 4.2 02:58:52 10° N 03:02:31 20° NW 03:04:24 16° W visible
10 Sep 3.1 00:49:06 10° NNE 00:53:53 51° E 00:53:53 51° E visible
10 Sep 3.6 02:29:00 10° N 02:33:31 30° WNW 02:34:37 27° W visible
11 Sep 4.0 00:20:03 10° NNE 00:24:06 30° E 00:24:06 30° E visible
11 Sep 2.9 01:59:22 10° N 02:04:24 47° WNW 02:04:50 46° W visible
11 Sep 4.7 03:41:32 10° NNW 03:42:43 11° NW 03:43:55 10° WNW visible
11 Sep 4.7 23:51:23 10° NE 23:54:19 18° ENE 23:54:19 18° ENE visible
12 Sep 2.5 01:29:54 10° NNE 01:35:03 78° NW 01:35:03 78° NW visible
12 Sep 4.3 03:10:41 10° NNW 03:13:53 17° NW 03:15:46 14° WNW visible
12 Sep 5.2 23:24:04 10° ENE 23:24:31 10° ENE 23:24:31 10° ENE visible
13 Sep 2.9 01:00:34 10° NNE 01:05:15 60° ENE 01:05:15 60° ENE visible
13 Sep 3.8 02:40:42 10° N 02:44:54 25° WNW 02:45:59 24° WNW visible
14 Sep 3.8 00:31:24 10° NNE 00:35:28 36° ENE 00:35:28 36° ENE visible
14 Sep 3.2 02:10:59 10° N 02:15:50 39° WNW 02:16:11 39° WNW visible
15 Sep 4.5 00:02:33 10° NE 00:05:39 22° ENE 00:05:39 22° ENE visible
15 Sep 2.7 01:41:25 10° N 01:46:23 63° NW 01:46:23 63° NW visible
15 Sep 4.5 03:22:34 10° NNW 03:25:12 14° NW 03:27:07 12° WNW visible
15 Sep 5.0 23:34:21 10° NE 23:35:51 13° ENE 23:35:51 13° ENE visible
16 Sep 2.8 01:12:01 10° NNE 01:16:35 65° NE 01:16:35 65° NE visible
16 Sep 4.0 02:52:23 10° N 02:56:16 21° NW 02:57:19 20° WNW visible
17 Sep 3.6 00:42:46 10° NNE 00:46:46 41° ENE 00:46:46 41° ENE visible
17 Sep 3.4 02:22:34 10° N 02:27:13 33° WNW 02:27:30 33° WNW visible
